Peoria, IL

4:25 PM CDT on August 24, 2016 (GMT -0500)
Greater Peoria Regional

Weather History for KPIA - June, 2012

Change the Weather History Date:

Sunday, June 17, 2012

  Actual Average Record
Temperature  
Mean Temperature 77 °F 72 °F  
Max Temperature 86 °F 83 °F 100 °F (1887)
Min Temperature 67 °F 62 °F 47 °F (1966)
Degree Days  
Heating Degree Days 0 0  
Month to date heating degree days 10 17  
Since 1 June heating degree days 10 17  
Since 1 July heating degree days 4593 5830  
Cooling Degree Days 12 8  
Month to date cooling degree days 97 101  
Year to date cooling degree days 290 182  
Since 1 June cooling degree days 97 101  
Growing Degree Days 26 (Base 50)    
Moisture  
Dew Point 65 °F    
Average Humidity 69    
Maximum Humidity 100    
Minimum Humidity 37    
Precipitation  
Precipitation T in 0.12 in 1.87 in (1892)
Month to date precipitation 2.09 2.00  
Year to date precipitation 11.50 16.33  
Snow  
Snow 0.00 in 0.00 in 0.00 in ()
Month to date snowfall 0.0 0.0  
Since 1 June snowfall 0.0 0.0  
Since 1 July snowfall 11.5 24.6  
Snow Depth 0.00 in    
Sea Level Pressure  
Sea Level Pressure 29.90 in    
Wind  
Wind Speed 7 mph (SW)    
Max Wind Speed 13 mph    
Max Gust Speed 17 mph    
Visibility 9 miles    
Events Rain    
T = Trace of Precipitation, MM = Missing Value Source: NWS Daily Summary

Daily Weather History Graph

Daily Weather History Graph

Search for Another Location

Airport or City:

Trip Planner

Search our weather history database for the weather conditions in past years. The results will help you decide how hot, cold, wet, or windy it might be!

Date:

Astronomy

Jun. 17, 2012 Rise Set
Actual Time 5:27 AM CDT 8:32 PM CDT
Civil Twilight 4:53 AM CDT 9:05 PM CDT
Nautical Twilight 4:11 AM CDT 9:48 PM CDT
Astronomical Twilight 3:21 AM CDT 10:38 PM CDT
Moon 3:56 AM CDT (6/17) 7:00 PM CDT (6/17)
Length of Visible Light 16h 11m
Length of Day
15h 05m
Waning Crescent, 3% of the Moon is Illuminated
Jun 17
Waning Crescent
Jun 19
New
Jun 26
First Quarter
Jul 3
Full
Jul 10
Last Quarter

Hourly Weather History & Observations

Time (CDT) Temp. Heat Index Dew Point Humidity Pressure Visibility Wind Dir Wind Speed Gust Speed Precip Events Conditions
12:54 AM 69.1 °F - 68.0 °F 96% 29.92 in 6.0 mi SW 3.5 mph - 0.01 in Rain Light Rain
1:08 AM 69.8 °F - 68.0 °F 94% 29.93 in 8.0 mi SW 3.5 mph - 0.00 in   Overcast
1:34 AM 69.8 °F - 66.2 °F 88% 29.93 in 10.0 mi SW 4.6 mph - 0.00 in   Overcast
1:54 AM 69.1 °F - 68.0 °F 96% 29.91 in 10.0 mi WSW 5.8 mph - 0.00 in   Overcast
2:27 AM 69.8 °F - 66.2 °F 88% 29.92 in 10.0 mi WSW 6.9 mph - N/A   Mostly Cloudy
2:54 AM 69.1 °F - 66.9 °F 93% 29.92 in 10.0 mi WSW 5.8 mph - N/A   Mostly Cloudy
3:01 AM 69.8 °F - 68.0 °F 94% 29.93 in 10.0 mi WSW 5.8 mph - N/A   Mostly Cloudy
3:31 AM 69.8 °F - 66.2 °F 88% 29.94 in 10.0 mi West 5.8 mph - N/A   Overcast
3:54 AM 69.1 °F - 66.9 °F 93% 29.93 in 10.0 mi West 5.8 mph - N/A   Scattered Clouds
4:01 AM 69.8 °F - 66.2 °F 88% 29.94 in 10.0 mi WSW 5.8 mph - N/A   Mostly Cloudy
4:24 AM 69.8 °F - 66.2 °F 88% 29.94 in 10.0 mi WSW 5.8 mph - N/A   Overcast
4:37 AM 68.0 °F - 66.2 °F 94% 29.94 in 10.0 mi West 8.1 mph - N/A   Overcast
4:54 AM 68.0 °F - 66.0 °F 93% 29.92 in 10.0 mi WSW 6.9 mph - N/A   Overcast
5:40 AM 66.2 °F - 64.4 °F 94% 29.94 in 8.0 mi WSW 5.8 mph - N/A   Mostly Cloudy
5:54 AM 66.9 °F - 66.0 °F 97% 29.93 in 7.0 mi SW 4.6 mph - N/A   Mostly Cloudy
6:54 AM 68.0 °F - 66.0 °F 93% 29.94 in 6.0 mi SW 6.9 mph - N/A   Overcast
7:54 AM 69.1 °F - 66.0 °F 90% 29.95 in 6.0 mi West 6.9 mph - N/A   Overcast
8:54 AM 70.0 °F - 66.0 °F 87% 29.96 in 8.0 mi WNW 5.8 mph - N/A   Overcast
9:54 AM 73.0 °F - 66.9 °F 81% 29.94 in 9.0 mi Variable 3.5 mph - N/A   Overcast
10:26 AM 73.4 °F - 66.2 °F 78% 29.95 in 10.0 mi Variable 3.5 mph - N/A   Mostly Cloudy
10:46 AM 75.2 °F - 66.2 °F 73% 29.95 in 10.0 mi WSW 6.9 mph - N/A   Scattered Clouds
10:54 AM 75.9 °F - 66.9 °F 74% 29.94 in 10.0 mi Variable 3.5 mph - N/A   Partly Cloudy
11:54 AM 80.1 °F 81.9 °F 64.9 °F 60% 29.93 in 10.0 mi WSW 5.8 mph - N/A   Clear
12:54 PM 82.0 °F 82.4 °F 60.1 °F 47% 29.91 in 10.0 mi Variable 4.6 mph - N/A   Clear
1:54 PM 84.0 °F 83.0 °F 55.9 °F 38% 29.88 in 10.0 mi SSW 8.1 mph - N/A   Clear
2:54 PM 84.9 °F 83.9 °F 57.0 °F 38% 29.86 in 10.0 mi SW 10.4 mph - N/A   Clear
3:54 PM 84.9 °F 83.9 °F 57.0 °F 38% 29.85 in 10.0 mi South 6.9 mph - N/A   Clear
4:54 PM 84.9 °F 83.9 °F 57.0 °F 38% 29.84 in 10.0 mi WSW 9.2 mph - N/A   Clear
5:54 PM 84.0 °F 83.5 °F 57.9 °F 41% 29.83 in 10.0 mi South 9.2 mph - N/A   Clear
6:54 PM 82.9 °F 82.8 °F 59.0 °F 44% 29.82 in 10.0 mi SSW 4.6 mph - N/A   Clear
7:54 PM 80.1 °F 81.5 °F 63.0 °F 56% 29.82 in 10.0 mi South 5.8 mph - N/A   Clear
8:54 PM 77.0 °F - 66.0 °F 69% 29.81 in 10.0 mi South 8.1 mph - N/A   Clear
9:54 PM 75.9 °F - 68.0 °F 76% 29.80 in 10.0 mi South 8.1 mph - N/A   Clear
10:54 PM 75.9 °F - 66.9 °F 74% 29.79 in 10.0 mi South 9.2 mph - N/A   Clear
11:54 PM 75.0 °F - 66.9 °F 76% 29.78 in 10.0 mi South 9.2 mph - N/A   Clear